カタログに戻る

CZ-3C DEB

運用中GTO
NORAD 48550·DEBRIS·🇨🇳 China

打ち上げ Feb 24, 2012 から Xichang Satellite Launch Center

Loading…

TLE

古いSource: Space-Track

元期: Sep 13, 2026, 23:36 UTC

1 48550U 12008AV  26256.98342718 -.00000089  00000-0  00000-0 0  9994
2 48550  20.0398 147.5221 6965081 340.7363   2.6769  2.24685621 91814

AllMySatでCZ-3C DEBをリアルタイム追跡

Download on the App Store